Weather History for Garrison, ND

Change the Weather History Date:

Saturday, June 8, 2013

  Actual Average Record
Temperature  
Mean Temperature 60 °F -  
Max Temperature 62 °F 68 °F 84 °F (1997)
Min Temperature 57 °F 47 °F 39 °F (2007)
Degree Days  
Heating Degree Days 6    
Growing Degree Days 10 (Base 50)    
Moisture  
Dew Point 56 °F    
Average Humidity 89    
Maximum Humidity 100    
Minimum Humidity 78    
Precipitation  
Precipitation 0.79 in - - ()
Month to date precipitation 2.68  
Year to date precipitation 13.36  
Sea Level Pressure  
Sea Level Pressure 29.73 in    
Wind  
Wind Speed 9 mph (SSE)    
Max Wind Speed 15 mph    
Max Gust Speed 18 mph    
Averages and records for this station are not official NWS values.
T = Trace of Precipitation, MM = Missing Value Source: NWS Daily Summary

Daily Weather History Graph

Daily Weather History Graph

Search for Another Location

Airport:

Trip Planner

Search our weather history database for the weather conditions in past years. The results will help you decide how hot, cold, wet, or windy it might be!

Date:

Astronomy

Jun. 08, 2013 Rise Set
Actual Time 5:48 AM CDT 9:41 PM CDT
Civil Twilight 5:08 AM CDT 10:21 PM CDT
Nautical Twilight 4:13 AM CDT 11:17 PM CDT
Astronomical Twilight 2:49 AM CDT 12:41 AM CDT
Moon 6:02 AM CDT (6/8) 9:41 PM CDT (6/8)
Length of Visible Light 17h 13m
Length of Day
15h 53m
New Moon, 0% of the Moon is Illuminated
Jun 8
New Moon
Jun 16
First Quarter
Jun 23
Full
Jun 29
Last Quarter
Jul 8
New

Hourly Weather History & Observations

Time (CDT) Temp. Dew Point Humidity Pressure Visibility Wind Dir Wind Speed Gust Speed Precip Events Conditions
12:52 AM 62.1 °F 55.9 °F 80% 29.73 in - East 4.6 mph - 0.03 in   Unknown
1:52 AM 60.1 °F 55.0 °F 83% 29.70 in - ESE 8.1 mph - 0.05 in   Unknown
2:52 AM 59.0 °F 55.9 °F 90% 29.69 in - ESE 6.9 mph - 0.01 in   Unknown
3:52 AM 60.1 °F 55.9 °F 86% 29.68 in - SE 5.8 mph - N/A   Unknown
4:52 AM 59.0 °F 55.9 °F 90% 29.69 in - SE 8.1 mph - 0.01 in   Unknown
5:52 AM 57.9 °F 55.9 °F 93% 29.69 in - SE 10.4 mph - 0.08 in   Unknown
6:52 AM 57.0 °F 55.0 °F 93% 29.67 in - SE 11.5 mph - 0.05 in   Unknown
7:52 AM 57.9 °F 55.0 °F 90% 29.68 in - SSE 5.8 mph - N/A   Unknown
8:52 AM 57.9 °F 55.0 °F 90% 29.68 in - SE 9.2 mph - N/A   Unknown
9:52 AM 59.0 °F 55.0 °F 87% 29.68 in - SE 10.4 mph - N/A   Unknown
10:52 AM 59.0 °F 55.9 °F 90% 29.70 in - SSE 8.1 mph - 0.01 in   Unknown
11:52 AM 59.0 °F 55.9 °F 90% 29.70 in - SE 9.2 mph - 0.04 in   Unknown
12:52 PM 57.9 °F 55.9 °F 93% 29.72 in - South 10.4 mph - 0.18 in   Unknown
1:52 PM 57.9 °F 57.0 °F 97% 29.72 in - SSE 12.7 mph - 0.26 in   Unknown
2:52 PM 60.1 °F 57.9 °F 93% 29.73 in - SSE 9.2 mph - 0.07 in   Unknown
3:52 PM 60.1 °F 57.9 °F 93% 29.73 in - South 9.2 mph - N/A   Unknown
4:52 PM 61.0 °F 59.0 °F 93% 29.74 in - South 9.2 mph - 0.02 in   Unknown
5:52 PM 59.0 °F 55.0 °F 87% 29.77 in - NW 10.4 mph - 0.01 in   Unknown
6:52 PM 60.1 °F 55.9 °F 86% 29.78 in - SSE 4.6 mph - 0.01 in   Unknown
7:52 PM 60.1 °F 57.0 °F 90% 29.79 in - SSW 4.6 mph - 0.01 in   Unknown
8:52 PM 57.9 °F 55.9 °F 93% 29.81 in - South 5.8 mph - 0.03 in   Unknown
9:52 PM 59.0 °F 55.9 °F 90% 29.82 in - Calm Calm - N/A   Unknown
10:52 PM 57.9 °F 55.9 °F 93% 29.83 in - WSW 3.5 mph - N/A   Unknown
11:52 PM 57.0 °F 55.0 °F 93% 29.84 in - Calm Calm - N/A   Unknown